Weather History for TJNR - December, 2013

Change the Weather History Date:

Thursday, December 5, 2013

  Actual Average Record
Temperature  
Mean Temperature 78 °F -  
Max Temperature 82 °F 81 °F 86 °F (1997)
Min Temperature 75 °F 71 °F 71 °F (1996)
Cooling Degree Days 14    
Growing Degree Days 28 (Base 50)    
Moisture  
Dew Point 74 °F    
Average Humidity 88    
Maximum Humidity 94    
Minimum Humidity 67    
Precipitation  
Precipitation 0.24 in - - ()
Sea Level Pressure  
Sea Level Pressure 30.05 in    
Wind  
Wind Speed 5 mph (North)    
Max Wind Speed 10 mph    
Max Gust Speed -    
Visibility 8 miles    
Events      
Averages and records for this station are not official NWS values.
T = Trace of Precipitation, MM = Missing Value Source: NWS Daily Summary

Daily Weather History Graph

Daily Weather History Graph

Search for Another Location

Airport or City:

Trip Planner

Search our weather history database for the weather conditions in past years. The results will help you decide how hot, cold, wet, or windy it might be!

Date:

Astronomy

Dec. 05, 2013 Rise Set
Actual Time 6:40 AM AST 5:45 PM AST
Civil Twilight 6:17 AM AST 6:09 PM AST
Nautical Twilight 5:50 AM AST 6:36 PM AST
Astronomical Twilight 5:23 AM AST 7:03 PM AST
Moon 9:07 AM AST (12/5) 8:48 PM AST (12/5)
Length of Visible Light 11h 52m
Length of Day
11h 05m
Waxing Crescent, 10% of the Moon is Illuminated
Dec 5
Waxing Crescent
Dec 9
First Quarter
Dec 17
Full
Dec 25
Last Quarter
Jan 1
New

Hourly Weather History & Observations

Time (AST) Temp. Heat Index Dew Point Humidity Pressure Visibility Wind Dir Wind Speed Gust Speed Precip Events Conditions
12:25 AM 77.0 °F - 73.4 °F 89% 30.04 in 10.0 mi North 6.9 mph - N/A   Mostly Cloudy
12:38 AM 77.0 °F - 73.4 °F 89% 30.04 in 10.0 mi North 6.9 mph - N/A   Mostly Cloudy
12:53 AM 77.0 °F - 73.9 °F 90% 30.04 in 10.0 mi North 4.6 mph - N/A   Scattered Clouds
1:09 AM 77.0 °F - 75.2 °F 94% 30.03 in 10.0 mi Calm Calm - N/A   Mostly Cloudy
1:53 AM 77.0 °F - 75.0 °F 94% 30.02 in 10.0 mi North 3.5 mph - N/A   Scattered Clouds
2:07 AM 77.0 °F - 75.2 °F 94% 30.02 in 10.0 mi North 4.6 mph - N/A   Mostly Cloudy
2:24 AM 77.0 °F - 75.2 °F 94% 30.01 in 10.0 mi North 3.5 mph - N/A   Mostly Cloudy
2:53 AM 77.0 °F - 73.9 °F 90% 30.00 in 10.0 mi North 4.6 mph - N/A   Scattered Clouds
3:53 AM 79.0 °F - 73.9 °F 84% 29.99 in 10.0 mi North 3.5 mph - N/A   Partly Cloudy
6:53 AM 78.1 °F - 73.0 °F 84% 30.02 in 10.0 mi NE 9.2 mph - N/A   Partly Cloudy
7:53 AM 77.0 °F - 72.0 °F 84% 30.04 in - North - - N/A   Unknown
9:53 AM 75.0 °F - 71.1 °F 87% 30.10 in 5.0 mi North 6.9 mph - N/A   Mist
10:20 AM 75.2 °F - 73.4 °F 94% 30.10 in 1.8 mi NW 5.8 mph - 0.08 in   Overcast
10:28 AM 75.2 °F - 73.4 °F 94% 30.10 in 1.5 mi NNW 3.5 mph - 0.13 in   Overcast
10:46 AM 75.2 °F - 73.4 °F 94% 30.09 in 2.0 mi Calm Calm - 0.24 in   Overcast
10:49 AM 75.2 °F - 73.4 °F 94% 30.09 in 3.0 mi Calm Calm - 0.24 in   Overcast
10:53 AM 75.9 °F - 73.9 °F 94% 30.09 in 6.0 mi West 3.5 mph - 0.24 in   Overcast
11:18 AM 78.8 °F - 75.2 °F 89% 30.07 in 10.0 mi NE 3.5 mph - N/A   Partly Cloudy
11:53 AM 79.0 °F - 75.0 °F 88% 30.07 in 10.0 mi NE 10.4 mph - N/A   Mostly Cloudy
12:04 PM 78.8 °F - 73.4 °F 83% 30.06 in - ENE 9.2 mph - N/A   Unknown
12:53 PM - - - N/A% 30.06 in - North - - N/A   Unknown
1:53 PM - - - N/A% 30.03 in - North - - N/A   Unknown
3:53 PM 82.9 °F 87.5 °F 71.1 °F 67% 30.01 in 10.0 mi NE 4.6 mph - N/A   Scattered Clouds
4:53 PM 82.0 °F 86.7 °F 72.0 °F 71% 30.01 in 10.0 mi NE 6.9 mph - N/A   Partly Cloudy
6:53 PM 75.0 °F - 73.0 °F 94% 30.02 in 10.0 mi NNW 4.6 mph - N/A   Clear